Time,TemperatureF,DewpointF,PressureIn,WindDirection,WindDirectionDegrees,WindSpeedMPH,WindSpeedGustMPH,Humidity,HourlyPrecipIn,Conditions,Clouds,dailyrainin,SoftwareType,DateUTC
2013-08-10 00:12:00,62.3,60.0,29.94,East,96,0.0,0.0,91,0.00,,,0.00,weatherlink.com 1.10,2013-08-10 07:12:00,
2013-08-10 00:27:00,64.8,61.0,29.95,ENE,75,3.0,7.0,86,0.00,,,0.00,weatherlink.com 1.10,2013-08-10 07:27:00,
2013-08-10 00:43:00,66.1,61.0,29.95,West,274,0.0,4.0,82,0.00,,,0.00,weatherlink.com 1.10,2013-08-10 07:43:00,
2013-08-10 00:58:00,65.4,61.0,29.96,West,274,0.0,0.0,86,0.03,,,0.03,weatherlink.com 1.10,2013-08-10 07:58:00,
2013-08-10 01:13:00,63.8,62.0,29.95,ENE,63,2.0,3.0,92,0.17,,,0.17,weatherlink.com 1.10,2013-08-10 08:13:00,
2013-08-10 01:28:00,63.2,62.0,29.96,East,98,0.0,3.0,94,0.20,,,0.20,weatherlink.com 1.10,2013-08-10 08:28:00,
2013-08-10 01:43:00,63.3,62.0,29.96,East,81,2.0,5.0,95,0.21,,,0.21,weatherlink.com 1.10,2013-08-10 08:43:00,
2013-08-10 01:58:00,63.2,62.0,29.96,East,80,0.0,2.0,96,0.20,,,0.23,weatherlink.com 1.10,2013-08-10 08:58:00,
2013-08-10 02:13:00,63.3,62.0,29.93,SSW,209,0.0,3.0,96,0.09,,,0.27,weatherlink.com 1.10,2013-08-10 09:13:00,
2013-08-10 02:28:00,63.3,62.0,29.90,ESE,117,0.0,3.0,96,0.08,,,0.28,weatherlink.com 1.10,2013-08-10 09:28:00,
2013-08-10 02:43:00,63.4,62.0,29.92,East,80,0.0,7.0,96,0.08,,,0.29,weatherlink.com 1.10,2013-08-10 09:43:00,
2013-08-10 02:58:00,63.9,63.0,29.94,NE,54,2.0,9.0,96,0.06,,,0.29,weatherlink.com 1.10,2013-08-10 09:58:00,
2013-08-10 03:13:00,64.2,63.0,29.93,WSW,240,0.0,5.0,95,0.03,,,0.30,weatherlink.com 1.10,2013-08-10 10:13:00,
2013-08-10 03:28:00,63.7,63.0,29.91,ESE,103,0.0,3.0,96,0.02,,,0.30,weatherlink.com 1.10,2013-08-10 10:28:00,
2013-08-10 03:43:00,63.6,63.0,29.88,ESE,103,2.0,2.0,96,0.01,,,0.30,weatherlink.com 1.10,2013-08-10 10:43:00,
2013-08-10 03:58:00,64.1,63.0,29.89,East,80,3.0,10.0,95,0.01,,,0.30,weatherlink.com 1.10,2013-08-10 10:58:00,
2013-08-10 04:13:00,64.1,63.0,29.89,SE,131,0.0,1.0,95,0.00,,,0.30,weatherlink.com 1.10,2013-08-10 11:13:00,
2013-08-10 04:28:00,63.8,63.0,29.89,SE,131,0.0,0.0,96,0.00,,,0.30,weatherlink.com 1.10,2013-08-10 11:28:00,
2013-08-10 04:43:00,63.5,62.0,29.89,SE,134,0.0,1.0,96,0.00,,,0.30,weatherlink.com 1.10,2013-08-10 11:43:00,
2013-08-10 04:58:00,63.3,62.0,29.90,SE,134,0.0,0.0,96,0.00,,,0.30,weatherlink.com 1.10,2013-08-10 11:58:00,
2013-08-10 05:13:00,63.2,62.0,29.91,SE,134,0.0,0.0,96,0.00,,,0.30,weatherlink.com 1.10,2013-08-10 12:13:00,
2013-08-10 05:28:00,63.1,62.0,29.91,SE,134,0.0,0.0,97,0.00,,,0.30,weatherlink.com 1.10,2013-08-10 12:28:00,
2013-08-10 05:43:00,63.1,62.0,29.92,SE,134,0.0,0.0,97,0.00,,,0.30,weatherlink.com 1.10,2013-08-10 12:43:00,
2013-08-10 05:58:00,63.2,62.0,29.93,SE,134,0.0,0.0,97,0.00,,,0.30,weatherlink.com 1.10,2013-08-10 12:58:00,
2013-08-10 06:13:00,63.2,62.0,29.94,SE,134,0.0,0.0,97,0.00,,,0.30,weatherlink.com 1.10,2013-08-10 13:13:00,
2013-08-10 06:28:00,63.2,62.0,29.95,SE,134,0.0,0.0,97,0.00,,,0.30,weatherlink.com 1.10,2013-08-10 13:28:00,
2013-08-10 06:43:00,63.2,62.0,29.96,SE,134,0.0,0.0,97,0.00,,,0.30,weatherlink.com 1.10,2013-08-10 13:43:00,
2013-08-10 06:58:00,63.3,63.0,29.96,SE,134,0.0,0.0,97,0.00,,,0.30,weatherlink.com 1.10,2013-08-10 13:58:00,
2013-08-10 07:13:00,63.4,63.0,29.96,SE,134,0.0,0.0,97,0.00,,,0.30,weatherlink.com 1.10,2013-08-10 14:13:00,
2013-08-10 07:28:00,63.6,63.0,29.97,SE,134,0.0,0.0,97,0.00,,,0.30,weatherlink.com 1.10,2013-08-10 14:28:00,
2013-08-10 07:43:00,63.8,63.0,29.97,SE,134,0.0,0.0,97,0.00,,,0.30,weatherlink.com 1.10,2013-08-10 14:43:00,
2013-08-10 07:58:00,64.2,64.0,29.97,SE,134,0.0,0.0,98,0.00,,,0.30,weatherlink.com 1.10,2013-08-10 14:58:00,
2013-08-10 08:13:00,64.3,64.0,29.97,SE,134,0.0,0.0,97,0.00,,,0.30,weatherlink.com 1.10,2013-08-10 15:13:00,
2013-08-10 08:29:00,64.2,63.0,29.97,SE,134,0.0,0.0,95,0.00,,,0.30,weatherlink.com 1.10,2013-08-10 15:29:00,
2013-08-10 08:43:00,64.2,63.0,29.97,SE,134,0.0,0.0,96,0.00,,,0.30,weatherlink.com 1.10,2013-08-10 15:43:00,
2013-08-10 08:58:00,64.9,64.0,29.97,SE,134,0.0,0.0,96,0.00,,,0.30,weatherlink.com 1.10,2013-08-10 15:58:00,
2013-08-10 09:13:00,66.0,64.0,29.97,SE,134,0.0,0.0,94,0.00,,,0.30,weatherlink.com 1.10,2013-08-10 16:13:00,
2013-08-10 09:28:00,66.4,64.0,29.97,SE,134,0.0,0.0,92,0.00,,,0.30,weatherlink.com 1.10,2013-08-10 16:28:00,
2013-08-10 09:43:00,67.3,64.0,29.97,SE,134,0.0,1.0,90,0.00,,,0.30,weatherlink.com 1.10,2013-08-10 16:43:00,
2013-08-10 09:58:00,67.9,64.0,29.97,SE,134,1.0,2.0,87,0.00,,,0.30,weatherlink.com 1.10,2013-08-10 16:58:00,
2013-08-10 10:13:00,68.7,65.0,29.98,SE,134,0.0,2.0,88,0.00,,,0.30,weatherlink.com 1.10,2013-08-10 17:13:00,
2013-08-10 10:28:00,69.2,66.0,29.98,SE,134,0.0,0.0,88,0.00,,,0.30,weatherlink.com 1.10,2013-08-10 17:28:00,
2013-08-10 10:43:00,68.7,65.0,29.98,SE,136,0.0,1.0,88,0.00,,,0.30,weatherlink.com 1.10,2013-08-10 17:43:00,
2013-08-10 10:58:00,68.4,64.0,29.98,ESE,106,0.0,3.0,86,0.00,,,0.30,weatherlink.com 1.10,2013-08-10 17:58:00,
2013-08-10 11:13:00,69.5,66.0,29.99,ESE,107,0.0,1.0,88,0.00,,,0.30,weatherlink.com 1.10,2013-08-10 18:13:00,
2013-08-10 11:28:00,71.0,65.0,29.99,NE,55,1.0,3.0,81,0.00,,,0.30,weatherlink.com 1.10,2013-08-10 18:28:00,
2013-08-10 11:43:00,71.3,65.0,29.98,ENE,72,0.0,2.0,80,0.00,,,0.30,weatherlink.com 1.10,2013-08-10 18:43:00,
2013-08-10 11:58:00,71.9,66.0,29.98,ENE,62,0.0,3.0,81,0.00,,,0.30,weatherlink.com 1.10,2013-08-10 18:58:00,
2013-08-10 12:14:00,73.0,65.0,29.98,NNE,15,0.0,2.0,76,0.00,,,0.30,weatherlink.com 1.10,2013-08-10 19:14:00,
2013-08-10 12:29:00,73.9,66.0,29.97,ENE,66,0.0,2.0,77,0.00,,,0.30,weatherlink.com 1.10,2013-08-10 19:29:00,
2013-08-10 12:44:00,74.6,66.0,29.97,ENE,72,0.0,4.0,74,0.00,,,0.30,weatherlink.com 1.10,2013-08-10 19:44:00,
2013-08-10 12:59:00,74.2,65.0,29.97,ENE,75,0.0,3.0,74,0.00,,,0.30,weatherlink.com 1.10,2013-08-10 19:59:00,
2013-08-10 13:14:00,74.4,66.0,29.97,SE,138,0.0,6.0,75,0.00,,,0.30,weatherlink.com 1.10,2013-08-10 20:14:00,
2013-08-10 13:29:00,75.2,67.0,29.96,SE,145,2.0,5.0,76,0.00,,,0.30,weatherlink.com 1.10,2013-08-10 20:29:00,
2013-08-10 13:44:00,75.8,67.0,29.96,East,88,0.0,3.0,73,0.00,,,0.30,weatherlink.com 1.10,2013-08-10 20:44:00,
2013-08-10 13:59:00,76.0,66.0,29.95,ESE,111,2.0,4.0,72,0.00,,,0.30,weatherlink.com 1.10,2013-08-10 20:59:00,
2013-08-10 14:14:00,76.0,66.0,29.95,ESE,105,2.0,4.0,71,0.00,,,0.30,weatherlink.com 1.10,2013-08-10 21:14:00,
2013-08-10 14:29:00,76.5,67.0,29.95,ESE,111,0.0,2.0,72,0.00,,,0.30,weatherlink.com 1.10,2013-08-10 21:29:00,
2013-08-10 14:44:00,77.6,67.0,29.95,East,88,0.0,4.0,70,0.00,,,0.30,weatherlink.com 1.10,2013-08-10 21:44:00,
2013-08-10 14:59:00,77.3,66.0,29.94,East,88,0.0,2.0,69,0.00,,,0.30,weatherlink.com 1.10,2013-08-10 21:59:00,
2013-08-10 15:14:00,77.2,67.0,29.94,East,88,0.0,3.0,71,0.00,,,0.30,weatherlink.com 1.10,2013-08-10 22:14:00,
2013-08-10 15:29:00,76.9,67.0,29.93,East,97,0.0,5.0,72,0.00,,,0.30,weatherlink.com 1.10,2013-08-10 22:29:00,
2013-08-10 15:44:00,76.9,67.0,29.93,NE,40,0.0,5.0,72,0.00,,,0.30,weatherlink.com 1.10,2013-08-10 22:44:00,
2013-08-10 15:59:00,76.9,67.0,29.92,NE,40,0.0,2.0,71,0.00,,,0.30,weatherlink.com 1.10,2013-08-10 22:59:00,
2013-08-10 16:14:00,77.0,67.0,29.92,East,81,0.0,1.0,70,0.00,,,0.30,weatherlink.com 1.10,2013-08-10 23:14:00,
2013-08-10 16:29:00,76.9,67.0,29.92,ESE,120,0.0,4.0,71,0.00,,,0.30,weatherlink.com 1.10,2013-08-10 23:29:00,
2013-08-10 16:44:00,76.8,66.0,29.92,SSE,151,2.0,4.0,70,0.00,,,0.30,weatherlink.com 1.10,2013-08-10 23:44:00,
2013-08-10 16:59:00,76.7,67.0,29.92,SE,145,0.0,3.0,73,0.00,,,0.30,weatherlink.com 1.10,2013-08-10 23:59:00,
2013-08-10 17:14:00,76.6,68.0,29.93,South,188,0.0,2.0,75,0.00,,,0.30,weatherlink.com 1.10,2013-08-11 00:14:00,
2013-08-10 17:29:00,75.2,66.0,29.95,East,82,0.0,3.0,74,0.00,,,0.30,weatherlink.com 1.10,2013-08-11 00:29:00,
2013-08-10 17:44:00,74.3,67.0,29.95,West,265,0.0,0.0,79,0.00,,,0.30,weatherlink.com 1.10,2013-08-11 00:44:00,
2013-08-10 17:59:00,73.7,67.0,29.94,West,260,2.0,4.0,80,0.00,,,0.30,weatherlink.com 1.10,2013-08-11 00:59:00,
2013-08-10 18:14:00,72.4,66.0,29.93,SE,142,0.0,3.0,80,0.00,,,0.30,weatherlink.com 1.10,2013-08-11 01:14:00,
2013-08-10 18:29:00,71.9,66.0,29.95,SSE,161,0.0,0.0,82,0.00,,,0.30,weatherlink.com 1.10,2013-08-11 01:29:00,
2013-08-10 18:44:00,71.0,66.0,29.92,SSE,161,0.0,1.0,85,0.01,,,0.31,weatherlink.com 1.10,2013-08-11 01:44:00,
2013-08-10 18:59:00,70.0,66.0,29.94,East,84,0.0,3.0,86,0.01,,,0.31,weatherlink.com 1.10,2013-08-11 01:59:00,
2013-08-10 19:14:00,69.6,66.0,29.96,East,84,0.0,2.0,88,0.01,,,0.31,weatherlink.com 1.10,2013-08-11 02:14:00,
2013-08-10 19:29:00,68.9,66.0,29.96,East,84,0.0,0.0,89,0.01,,,0.31,weatherlink.com 1.10,2013-08-11 02:29:00,
2013-08-10 19:44:00,68.3,66.0,29.97,East,96,0.0,2.0,91,0.00,,,0.31,weatherlink.com 1.10,2013-08-11 02:44:00,
2013-08-10 19:59:00,67.8,65.0,29.97,East,96,0.0,2.0,91,0.00,,,0.31,weatherlink.com 1.10,2013-08-11 02:59:00,
2013-08-10 20:14:00,67.6,65.0,29.99,East,96,0.0,3.0,92,0.00,,,0.31,weatherlink.com 1.10,2013-08-11 03:14:00,
2013-08-10 20:29:00,67.5,64.0,29.99,East,99,0.0,2.0,89,0.00,,,0.31,weatherlink.com 1.10,2013-08-11 03:29:00,
2013-08-10 20:44:00,67.4,65.0,30.00,East,100,0.0,0.0,90,0.00,,,0.31,weatherlink.com 1.10,2013-08-11 03:44:00,
2013-08-10 21:14:00,67.1,64.0,29.99,East,101,0.0,0.0,90,0.00,,,0.31,weatherlink.com 1.10,2013-08-11 04:14:00,
2013-08-10 21:29:00,67.0,64.0,29.99,East,101,0.0,0.0,91,0.00,,,0.31,weatherlink.com 1.10,2013-08-11 04:29:00,
2013-08-10 21:44:00,67.0,65.0,30.00,ENE,70,1.0,4.0,92,0.00,,,0.31,weatherlink.com 1.10,2013-08-11 04:44:00,
2013-08-10 21:59:00,67.0,64.0,30.00,ENE,71,0.0,0.0,91,0.00,,,0.31,weatherlink.com 1.10,2013-08-11 04:59:00,
2013-08-10 22:14:00,66.9,65.0,30.00,East,84,0.0,2.0,92,0.00,,,0.31,weatherlink.com 1.10,2013-08-11 05:14:00,
2013-08-10 22:29:00,66.8,64.0,30.01,East,84,0.0,1.0,91,0.00,,,0.31,weatherlink.com 1.10,2013-08-11 05:29:00,
2013-08-10 22:44:00,66.8,64.0,29.99,East,84,0.0,2.0,91,0.00,,,0.31,weatherlink.com 1.10,2013-08-11 05:44:00,
2013-08-10 22:59:00,66.6,64.0,30.00,SE,131,5.0,8.0,91,0.00,,,0.31,weatherlink.com 1.10,2013-08-11 05:59:00,
2013-08-10 23:14:00,66.1,64.0,29.99,South,184,0.0,2.0,93,0.01,,,0.32,weatherlink.com 1.10,2013-08-11 06:14:00,
2013-08-10 23:29:00,65.8,64.0,30.00,South,184,0.0,0.0,94,0.01,,,0.32,weatherlink.com 1.10,2013-08-11 06:29:00,
2013-08-10 23:44:00,65.6,64.0,30.01,East,94,2.0,3.0,95,0.01,,,0.32,weatherlink.com 1.10,2013-08-11 06:44:00,
2013-08-10 23:59:00,66.0,64.0,30.02,NE,39,0.0,7.0,93,0.01,,,0.32,weatherlink.com 1.10,2013-08-11 06:59:00,